FENGYUN 1C DEB, 32342

Orbit data source: Space-Track

FENGYUN 1C DEB, 32342 is space debris in SSO originally from a launch on Mon, 10 May 1999 UTC launched from the Taiyaun Space Center, China (TSC). Fengyun 1C debris stems from the Chinese weather satellite Fengyun-1C, which was intentionally destroyed by a Chinese anti-satellite missile in 2007. This event dramatically increased the amount of space debris, with thousands of trackable fragments posing hazards to satellites and human spaceflight. The Fengyun 1C debris cloud has become a focal point in discussions about space sustainability and the need for international regulations to prevent the creation of new debris.

Loading next visibility...
Identifier
32342, 1999-025CYK
Orbit
SSO
Country
Flag of CNCN / PRC
Related business
Manufacturer
Unknown
Mission
Spacecraft
Bus & Motor
Unknown
Mass
Unknown
Launch date (UTC)
1999-05-10 (27 years ago)
Launch vehicle
Unknown
Launch site
Taiyaun Space Center, China (TSC)
Object type
Payload
Rocket body
Debris
Shape & HBR
Unknown shape, 0.1 m
Radar Cross Section
Medium (>0.1 m² and <1 m²)

Expand to show TLE details & history
Last TLE update: 20 hours ago

TLE from 20 hours ago
0 FENGYUN 1C DEB
1 32342U 99025CYK 26150.48354501  .00000160  00000-0  10776-3 0  9994
2 32342  98.6665 158.9037 0006930 214.6144 300.0142 14.13467524961013
Epoch: 2026-05-30T11:36Z
TLE epoch observation values (Epoch: 2026-05-30T11:36:18.288Z)
Latitude
25.15946°
Longitude
-79.08763°
Altitude
848.066 km
Speed
7.432 km/s
True Right ascension
22h 51m 56s
True Declination
25° 01' 45"
Sunlit
Object was in daylight at epoch
Visualization orbit readout
Latitude
Unknown
Longitude
Unknown
Altitude
Unknown
Speed
Unknown
Apparent Right ascension
Unknown
Apparent Declination
Unknown
Sunlit
N/A
Visualization observer readout
Local Sidereal Time
17:07:29
Azimuth
Unknown
Elevation
Unknown
Doppler factor
Unknown
Orbital elements
Apogee altitude
849.701 km
Perigee altitude
839.69 km
Semi-major axis
7,222.832 km
Eccentricity
0.00069
Inclination
98.6665°
RAAN
158.9037°
Arg. of periapsis
214.6144°
True anomaly
299.94541°
Mean anomaly
300.0142°
Eccentric anomaly
299.97981°
Mean motion
3.53575 °/min
Orbital period
101.82 mins
BSTAR
0.00010776
Loading maneuver chart data...
Computing Atmospheric mass density...

Documentation

Showing up to 5 results
|